Home > Weather > Debrecen > Past weeks

Flag for Hungary Weather for the Past 2 Weeks in Debrecen, Hungary

Now
61 °F

Sunny.


Feels Like: 61 °F
Forecast: 48 / 65 °F
Wind: 14 mph from Northeast

Location: Debrecen Airport

Current Time: May 6, 2016 at 9:40:02 AM

Latest Report: May 6, 2016 at 8:45 AM


Visibility: 10 mi

Pressure: 30.07 "Hg

Humidity: 59%

Dew Point: 46 °F

Location of DebrecenLocation

Historic Weather in Debrecen — Graph

°F

Debrecen Temperature Yesterday

Maximum temperature yesterday: 73 °F (at 12:45 PM)
Minimum temperature yesterday: 55 °F (at 4:45 AM)
Average temperature yesterday: 65 °F

High & Low Weather Summary for the Past Weeks

 TemperatureHumidityPressure
High73 °F (May 5, 12:45 PM)100% (Apr 30, 7:15 AM)30.36 "Hg (Apr 30, 7:15 AM)
Low36 °F (Apr 28, 5:15 AM)23% (Apr 23, 2:45 PM)29.50 "Hg (Apr 24, 5:15 AM)
Average57 °F57%29.91 "Hg
* Reported Apr 21 8:15 AM — May 6 8:15 AM, Debrecen, Weather by CustomWeather, © 2016

Note: Actual official high and low records may vary slightly from our data, if they occured in-between our weather recording intervals... More about our weather records

Advertising

Debrecen Weather History for the Previous 24 Hours

Scroll right to see more
 ConditionsComfort  
Time TempWeatherWind HumidityBarometerVisibility
8:15 AM
Fri, May 6
59 °FSunny.14 mph63%30.07 "Hg10 mi
7:45 AM59 °FSunny.8 mph63%30.07 "Hg10 mi
7:15 AM55 °FSunny.10 mph72%30.07 "Hg10 mi
6:45 AM54 °FSunny.12 mph77%30.07 "Hg10 mi
6:15 AM52 °FSunny.9 mph82%30.07 "Hg10 mi
5:45 AM48 °FClear.6 mph87%30.07 "Hg10 mi
5:15 AM50 °FClear.6 mph82%30.07 "Hg10 mi
5:45 PM
Thu, May 5
68 °FSunny.12 mph40%30.07 "Hg10 mi
5:15 PM68 °FSunny.14 mph38%30.07 "Hg10 mi
4:45 PM68 °FSunny.8 mph38%30.07 "Hg10 mi
4:15 PM68 °FSunny.16 mph40%30.07 "Hg10 mi
3:45 PM66 °FPartly sunny.20 mph46%30.09 "HgN/A
3:15 PM72 °FSunny.10 mph31%30.07 "Hg10 mi
2:45 PM68 °FSprinkles. Partly sunny.15 mph33%30.07 "HgN/A
2:15 PM73 °FSprinkles. Partly sunny.12 mph31%30.07 "HgN/A
1:45 PM73 °FSunny.14 mph31%30.07 "Hg10 mi
1:15 PM72 °FSunny.13 mph33%30.09 "Hg10 mi
12:45 PM73 °FSunny.15 mph31%30.09 "Hg10 mi
12:15 PM72 °FSunny.13 mph36%30.09 "Hg10 mi
11:45 AM70 °FSunny.16 mph40%30.09 "Hg10 mi
11:15 AM70 °FSunny.14 mph43%30.09 "Hg10 mi
10:45 AM68 °FSunny.14 mph46%30.09 "Hg10 mi
10:15 AM66 °FSunny.16 mph52%30.12 "Hg10 mi
9:45 AM66 °FSunny.16 mph49%30.09 "Hg10 mi
9:15 AM64 °FSunny.16 mph56%30.09 "Hg10 mi
Weather by CustomWeather, © 2016

See weather overviewHow to use our weather pages